Location: Gensac
(43.2177°N, 1.1313°E)
Time: 23:47:13
(UTC+00:00)

IGS 5A - Visible Passes

Search period start: 14 March 2026 00:00
Search period end: 24 March 2026 00:00
Orbit: 551 x 554 km, 97.4° (Epoch: 8 January)

Date Brightness Start Highest point End Pass type
(mag) Time Alt. Az. Time Alt. Az. Time Alt. Az.
14 Mar 3.6 05:35:20 10° NNE 05:39:19 73° ESE 05:43:16 10° S visible
15 Mar 3.8 05:31:23 10° NNE 05:35:21 65° E 05:39:17 10° S visible
16 Mar 4.1 05:27:27 10° NNE 05:31:22 58° E 05:35:16 10° S visible
17 Mar 4.3 05:23:30 10° NNE 05:27:23 52° E 05:31:15 10° S visible
18 Mar 4.6 05:19:33 10° NNE 05:23:24 47° E 05:27:12 10° S visible
19 Mar 4.8 05:15:36 10° NNE 05:19:23 42° E 05:23:09 10° S visible
20 Mar 5.0 05:11:39 10° NNE 05:15:22 38° E 05:19:04 10° SSE visible
21 Mar 5.3 05:07:42 10° NNE 05:11:21 34° E 05:14:58 10° SSE visible
22 Mar 5.5 05:03:45 10° NNE 05:07:18 31° E 05:10:50 10° SSE visible
23 Mar 5.7 04:59:48 10° NE 05:03:16 28° E 05:06:41 10° SSE visible
